Wind_Speed
21 22 22 22 22 16 14 14 14 13 11 11 11 11 11 12 13 13 12 12 12 11 11 11 10 10 9 9 8 7 7 7 7 7 8 9 9 9 9 9 10 10 10 10 10 9 9 9 9
20 19 23 24 16 12 14 14 14 13 12 12 11 11 11 12 13 12 12 12 11 11 11 10 10 10 10 9 8 7 7 7 7 8 8 9 9 9 9 9 9 9 9 9 9 9 9 9 9
20 21 24 16 11 11 12 13 14 14 13 12 12 11 12 12 12 12 12 12 11 11 11 10 10 9 9 9 8 7 7 7 7 8 9 9 9 9 9 9 9 9 9 9 8 9 9 8 8
21 24 20 13 12 12 13 14 14 14 14 13 13 12 12 13 13 13 13 12 11 11 11 10 10 9 9 8 8 8 7 7 7 8 8 9 9 8 8 9 8 8 8 8 8 8 8 8 8
21 22 14 12 12 12 12 14 14 14 14 14 13 13 13 14 14 14 13 12 12 12 11 11 10 10 9 9 8 8 7 7 7 7 7 7 8 8 8 8 8 8 8 8 7 7 7 7 7
21 17 10 10 10 11 12 13 13 13 14 14 14 14 14 15 14 14 13 13 13 13 12 11 11 10 9 9 9 9 8 7 6 7 6 7 8 8 8 8 8 7 7 7 7 7 7 7 7
16 12 9 9 9 10 11 12 13 13 13 13 14 14 14 14 14 15 14 14 14 13 13 12 12 11 10 9 9 8 8 8 7 7 7 7 7 8 8 8 7 7 7 7 7 7 6 6 6
15 12 8 7 8 9 11 12 13 13 13 14 14 14 14 15 15 15 14 14 14 13 13 13 13 12 10 9 9 9 8 7 7 8 8 7 6 7 7 7 7 7 7 7 7 6 6 6 6
15 11 7 6 7 9 10 11 13 14 13 14 14 14 15 14 15 15 15 14 14 14 13 13 13 12 11 10 10 9 9 8 7 7 6 7 6 6 6 6 6 7 7 7 6 6 6 6 6
11 8 4 5 6 8 9 11 13 13 13 13 14 14 15 14 15 15 15 15 15 14 13 13 13 12 12 11 11 10 9 9 7 6 6 6 5 5 5 5 5 5 5 5 5 5 6 7 7
7 6 4 4 5 6 9 10 12 12 13 13 14 14 15 15 15 15 15 16 15 15 14 13 13 12 12 12 11 10 9 9 9 7 6 5 4 4 4 4 5 4 4 4 5 6 6 6 6
6 5 4 4 4 6 7 8 10 10 11 12 13 13 14 14 15 15 16 16 15 15 14 13 13 12 12 12 11 11 10 9 9 8 7 7 5 5 5 4 5 4 5 5 5 5 5 5 5
4 3 3 4 4 5 5 6 8 9 10 12 12 13 13 14 14 14 14 15 15 15 14 13 13 13 12 12 11 11 11 10 9 8 8 7 6 5 4 3 4 4 4 4 4 4 4 3 3
5 3 2 2 3 4 4 5 8 9 11 11 12 12 13 13 13 13 14 14 15 14 14 13 13 13 12 12 11 10 10 10 9 8 7 7 6 5 4 4 3 3 2 3 3 3 2 2 1
5 3 2 1 2 2 2 3 6 8 10 11 11 12 13 13 12 13 13 14 14 14 13 13 13 13 13 12 11 10 9 9 9 9 8 7 6 5 4 3 2 2 2 1 1 1 1 1 1
3 2 2 1 4 4 3 2 6 8 10 10 11 11 12 12 12 12 13 13 13 13 13 13 13 13 12 11 11 10 9 9 9 8 8 7 7 6 5 3 2 2 1 1 1 1 0 1 1
6 5 3 3 5 6 4 5 5 7 10 10 11 10 11 11 12 12 13 12 13 13 12 13 13 12 12 11 11 11 10 9 9 8 8 7 7 6 6 4 4 3 3 3 2 2 2 2 2
7 5 5 6 7 7 6 5 5 6 8 9 10 10 10 11 12 12 12 12 12 12 12 13 13 12 12 12 11 10 10 9 9 9 8 7 7 7 6 5 4 4 3 3 2 3 3 3 3
9 8 8 7 9 9 7 6 6 7 8 9 9 9 9 10 11 12 11 11 12 12 12 12 13 13 13 12 12 11 10 10 9 9 8 8 7 6 6 5 4 4 3 3 3 4 4 5 5
13 13 10 9 9 9 8 8 7 9 9 10 10 9 8 8 9 10 10 11 11 12 11 11 12 13 13 12 12 12 11 11 10 9 8 8 7 6 6 5 5 4 4 4 5 5 5 5 6
15 14 12 12 11 10 9 10 10 10 9 9 9 8 8 7 8 9 9 10 11 12 12 12 12 13 13 12 12 12 12 11 11 11 9 8 8 8 7 6 5 5 4 5 5 5 6 6 6
17 15 15 14 13 11 10 13 14 13 11 9 8 9 9 8 7 8 9 10 11 11 12 12 12 13 13 13 11 12 12 12 11 11 11 10 9 9 7 6 6 6 6 6 6 6 6 7 6
18 17 17 15 14 13 12 14 14 15 13 11 9 10 9 9 8 8 8 9 10 11 11 12 12 12 12 12 12 12 12 12 12 12 12 11 11 10 8 8 8 7 7 7 6 6 7 7 7
20 18 17 15 15 16 14 14 15 16 15 11 11 11 10 9 9 8 8 9 10 11 11 12 12 12 12 13 13 13 13 13 13 13 12 12 11 11 10 9 9 8 8 8 8 7 7 8 8
23 20 18 16 17 18 15 15 16 16 15 13 12 12 11 10 9 9 9 9 10 10 11 12 12 12 13 13 13 13 13 14 14 14 13 12 12 11 10 10 9 9 9 9 8 8 9 9 9
25 23 20 17 15 14 14 16 17 17 15 14 13 13 12 11 10 10 9 9 10 11 11 12 12 12 13 14 14 14 14 14 14 14 14 13 12 12 11 11 10 10 10 9 9 9 10 10 10
26 25 22 18 16 16 16 16 17 17 16 15 13 13 12 12 10 9 10 10 11 11 12 12 13 13 13 14 14 15 14 14 14 15 14 13 12 11 11 11 11 11 10 10 9 10 11 12 12
27 24 23 23 21 19 17 18 18 17 17 16 15 14 13 13 12 11 11 11 11 11 12 13 14 14 14 14 15 15 15 15 15 15 15 15 14 12 11 11 12 12 12 11 11 11 12 12 13
29 27 26 25 23 20 18 19 18 18 18 17 17 16 15 14 13 12 12 12 11 11 12 14 15 15 15 15 16 16 16 16 15 15 15 15 14 13 12 12 12 12 12 12 11 11 12 12 13
29 29 27 27 27 24 19 18 19 20 21 19 18 16 16 15 14 13 13 13 13 12 13 14 15 16 16 16 17 16 16 16 15 14 14 14 14 13 12 12 13 13 12 12 13 13 13 14 14
Wind_Direction
72 71 70 65 58 53 53 55 59 60 60 64 63 60 61 59 58 60 60 59 58 59 60 60 60 62 66 70 74 81 86 91 97 100 102 106 110 111 112 112 115 115 115 110 107 107 103 103 105
75 72 67 59 57 47 52 56 57 57 55 56 57 58 60 57 58 58 58 56 55 56 57 58 61 62 66 68 70 75 81 88 93 98 101 105 109 110 111 113 115 116 116 111 107 104 103 101 103
73 68 65 56 51 49 52 57 57 55 55 55 54 57 58 57 56 56 56 55 53 54 56 60 61 61 63 65 64 68 78 89 94 100 101 105 108 109 111 112 113 114 114 114 108 105 105 101 102
71 66 62 52 49 51 50 51 55 55 55 56 55 56 57 56 56 54 53 55 55 55 57 58 58 58 62 64 65 67 75 86 95 99 100 102 103 106 109 110 109 112 112 111 107 106 105 103 100
70 64 56 47 44 47 47 48 51 52 53 54 53 54 54 56 55 54 54 55 56 57 58 57 57 58 61 64 67 69 74 82 89 96 100 99 103 106 108 110 109 112 116 113 110 107 104 105 100
68 60 47 43 38 43 43 44 50 51 50 50 50 50 55 57 54 53 55 56 57 57 56 57 58 59 63 66 69 73 81 82 87 94 96 101 105 101 104 108 113 114 113 112 108 111 110 104 100
71 70 46 33 33 40 44 43 48 47 50 50 50 50 53 54 53 53 54 55 56 58 58 57 57 58 61 63 66 72 78 78 86 94 94 98 104 102 101 105 110 112 115 117 116 119 113 104 97
87 81 58 26 27 36 43 47 49 47 48 48 47 48 47 48 50 51 53 53 52 55 55 54 55 57 58 61 64 68 73 75 82 90 88 91 103 104 105 108 109 107 104 113 117 112 101 101 95
78 77 64 30 22 34 40 40 46 46 45 45 45 45 44 45 46 49 50 51 51 52 52 51 52 53 53 54 58 60 65 71 77 84 83 87 94 98 103 107 110 110 107 111 110 100 94 91 89
80 81 64 41 32 32 35 36 37 42 42 43 43 43 43 43 43 44 45 46 46 47 48 48 48 47 48 49 51 52 55 65 73 78 78 87 95 96 102 110 112 110 110 115 116 104 98 94 89
95 85 71 61 40 38 33 39 38 36 37 39 40 41 41 42 43 43 43 43 42 43 43 43 43 43 42 43 47 48 50 52 57 65 73 81 87 87 96 99 109 112 114 113 112 108 103 97 91
102 101 102 92 49 50 40 37 37 31 31 34 35 36 38 41 42 42 42 42 42 42 42 40 37 38 39 38 39 40 43 43 44 50 59 68 74 80 89 96 99 106 109 104 105 107 102 97 94
115 117 105 78 66 46 42 37 33 26 25 29 32 30 35 38 39 39 39 38 38 37 37 36 34 34 35 33 34 36 40 39 39 41 50 53 61 71 73 78 97 92 96 99 105 110 102 93 85
147 146 98 59 45 42 30 32 29 25 19 23 27 27 29 35 34 34 36 35 34 34 34 31 30 29 30 30 30 31 32 34 33 41 46 51 55 61 68 77 86 79 89 94 102 110 92 99 67
160 160 131 18 342 12 359 13 22 16 13 16 22 26 26 26 28 30 31 30 30 32 31 28 26 25 25 27 29 29 28 28 35 39 36 42 52 51 46 48 59 68 82 88 80 71 70 65 11
177 209 181 289 310 322 331 8 23 3 3 7 15 20 22 21 22 26 28 26 26 27 26 24 23 22 21 23 27 28 27 29 32 34 33 35 35 29 23 25 42 39 38 351 330 335 292 301 319
208 219 208 250 291 295 308 324 -0 353 353 358 5 11 16 16 18 20 23 23 23 22 24 23 21 22 20 18 22 22 24 27 27 30 30 31 30 24 17 9 15 12 5 355 345 328 292 285 292
211 222 214 238 269 272 285 300 333 342 342 343 352 1 10 10 14 16 21 23 23 24 24 23 25 26 23 20 19 19 21 19 19 23 23 23 25 20 13 8 9 12 357 352 353 339 324 303 291
203 209 221 232 255 260 272 286 300 319 327 333 342 355 3 5 10 12 17 22 24 23 23 24 25 23 20 17 14 16 15 16 15 13 9 10 16 15 14 11 5 356 352 346 339 326 318 308 295
209 211 219 229 247 251 257 276 275 291 313 323 336 346 359 0 4 10 13 18 19 17 16 14 16 18 18 17 15 14 12 10 10 6 2 357 358 357 351 351 355 349 346 338 331 326 315 308 298
215 216 221 228 245 250 253 262 272 275 295 308 324 330 342 356 357 2 5 6 9 11 9 8 8 7 7 9 10 10 10 6 4 4 360 354 349 348 343 339 342 344 337 330 327 324 320 316 308
220 220 223 229 235 246 258 267 269 282 284 297 309 317 327 341 351 355 356 358 4 8 6 4 4 4 6 8 7 6 6 2 1 1 360 352 348 346 344 338 331 329 330 331 325 319 315 312 309
219 222 224 227 235 238 248 262 265 278 282 293 302 306 318 327 339 342 345 353 355 358 360 1 2 2 4 5 4 2 2 1 360 358 356 353 348 347 342 338 332 328 330 326 323 314 312 310 310
223 222 227 226 232 241 237 251 266 268 276 280 291 298 309 314 324 325 332 342 346 348 352 356 357 358 359 358 357 356 356 356 354 352 350 347 345 342 337 333 330 326 322 315 311 309 310 311 309
224 223 226 229 234 240 238 243 257 267 272 270 281 288 294 300 308 314 322 330 334 338 344 348 350 351 352 353 353 352 351 349 347 347 344 341 340 338 333 329 326 320 315 312 307 303 305 306 305
225 223 222 227 240 251 247 244 251 259 266 267 268 274 281 288 294 301 312 320 323 328 334 339 342 343 345 348 348 347 345 344 343 342 341 339 337 337 335 331 325 318 313 308 304 302 303 302 300
226 222 221 230 237 243 245 247 256 259 263 269 270 267 271 277 280 291 303 313 315 321 324 328 332 335 337 340 343 343 343 341 341 340 339 339 334 331 331 329 326 321 315 308 303 304 303 301 300
224 227 219 221 231 239 250 253 252 255 265 268 265 265 265 270 273 280 293 304 310 315 318 322 326 328 330 333 334 337 338 336 335 334 334 336 334 327 327 325 322 319 316 312 304 304 306 306 303
223 221 222 222 225 233 244 255 256 256 265 271 269 266 266 267 269 276 288 296 302 308 314 317 322 325 326 327 328 329 331 330 328 329 329 330 331 331 325 321 319 319 317 317 314 309 309 312 313
226 223 221 223 225 223 232 250 249 254 265 268 266 263 263 267 267 273 284 289 294 302 308 313 317 320 321 323 324 325 326 326 324 324 326 326 325 326 324 318 317 316 316 315 315 313 312 311 311
Height
5902 5901 5900 5899 5898 5900 5898 5897 5895 5894 5892 5891 5890 5889 5887 5887 5887 5887 5883 5882 5882 5881 5880 5879 5879 5878 5878 5878 5877 5877 5877 5877 5877 5877 5877 5877 5878 5878 5879 5879 5880 5880 5881 5881 5882 5882 5883 5883 5884
5905 5904 5901 5901 5905 5903 5902 5900 5898 5897 5895 5894 5892 5891 5890 5889 5888 5887 5885 5884 5884 5883 5882 5882 5881 5881 5880 5880 5879 5879 5879 5878 5878 5878 5879 5879 5879 5880 5880 5881 5881 5881 5882 5883 5883 5884 5884 5885 5886
5907 5906 5903 5908 5908 5907 5905 5903 5901 5900 5898 5896 5895 5894 5893 5891 5890 5889 5888 5887 5886 5885 5884 5883 5883 5883 5882 5882 5881 5881 5880 5880 5880 5880 5880 5881 5881 5882 5882 5882 5883 5883 5884 5884 5885 5885 5886 5886 5887
5909 5907 5910 5913 5911 5910 5908 5906 5904 5902 5901 5899 5898 5897 5894 5893 5892 5891 5890 5889 5888 5887 5886 5886 5885 5885 5884 5884 5883 5883 5882 5882 5882 5882 5882 5883 5883 5883 5883 5884 5884 5885 5885 5886 5886 5887 5887 5888 5888
5911 5911 5915 5914 5914 5913 5911 5909 5907 5906 5904 5902 5902 5899 5897 5896 5895 5893 5892 5891 5890 5889 5888 5888 5887 5887 5886 5886 5885 5885 5884 5884 5884 5884 5884 5884 5884 5885 5885 5885 5886 5886 5887 5887 5888 5888 5889 5889 5890
5915 5918 5919 5918 5917 5916 5914 5912 5910 5909 5907 5905 5904 5902 5900 5899 5897 5896 5895 5893 5892 5892 5891 5890 5889 5889 5888 5888 5887 5887 5886 5886 5886 5886 5886 5886 5886 5886 5887 5887 5888 5888 5888 5889 5889 5890 5890 5891 5892
5920 5922 5922 5921 5920 5918 5917 5915 5913 5911 5910 5908 5907 5905 5903 5902 5900 5898 5897 5896 5895 5894 5893 5892 5891 5891 5890 5890 5890 5889 5888 5888 5887 5887 5887 5887 5887 5888 5888 5889 5889 5889 5890 5890 5891 5892 5892 5892 5893
5923 5925 5925 5924 5922 5921 5919 5917 5916 5914 5913 5911 5910 5908 5906 5905 5903 5901 5900 5899 5898 5897 5896 5895 5894 5893 5893 5892 5891 5891 5890 5890 5890 5889 5889 5889 5889 5890 5890 5890 5891 5891 5892 5892 5892 5893 5893 5894 5894
5926 5929 5928 5927 5925 5923 5921 5920 5918 5917 5915 5914 5912 5911 5909 5907 5906 5904 5903 5902 5900 5899 5899 5898 5897 5896 5895 5894 5893 5892 5892 5892 5892 5891 5891 5891 5891 5891 5892 5892 5893 5893 5893 5893 5894 5894 5895 5895 5896
5930 5930 5931 5929 5927 5926 5924 5922 5921 5919 5918 5916 5915 5913 5911 5910 5908 5907 5906 5904 5903 5902 5901 5900 5900 5899 5898 5897 5895 5895 5894 5893 5893 5893 5893 5893 5893 5893 5893 5894 5894 5895 5895 5895 5895 5896 5896 5896 5897
5932 5933 5932 5931 5929 5928 5926 5924 5923 5922 5921 5919 5917 5916 5914 5912 5911 5910 5908 5907 5906 5905 5904 5903 5902 5901 5900 5899 5898 5898 5897 5896 5895 5895 5895 5895 5894 5894 5895 5895 5895 5896 5896 5896 5896 5897 5897 5898 5898
5933 5934 5933 5933 5931 5930 5928 5927 5926 5925 5924 5922 5920 5918 5917 5915 5913 5912 5911 5910 5909 5908 5907 5906 5905 5904 5903 5902 5901 5900 5899 5898 5897 5897 5896 5896 5896 5896 5896 5896 5896 5897 5897 5898 5898 5898 5899 5899 5900
5935 5935 5934 5933 5933 5932 5931 5929 5929 5927 5925 5924 5922 5920 5919 5917 5916 5914 5913 5912 5911 5910 5909 5908 5907 5906 5905 5904 5903 5902 5901 5900 5899 5898 5898 5897 5897 5897 5897 5897 5897 5898 5898 5899 5899 5900 5900 5900 5901
5935 5935 5935 5935 5934 5933 5932 5931 5930 5929 5928 5926 5924 5922 5921 5919 5918 5917 5916 5915 5914 5912 5911 5910 5909 5908 5906 5906 5905 5903 5903 5902 5901 5900 5899 5899 5898 5898 5898 5898 5898 5899 5899 5900 5900 5900 5901 5901 5901
5934 5935 5936 5936 5934 5934 5933 5931 5931 5930 5930 5928 5926 5925 5923 5921 5920 5919 5918 5917 5916 5914 5913 5912 5910 5909 5908 5907 5906 5905 5904 5903 5902 5902 5901 5901 5900 5900 5899 5899 5900 5900 5900 5900 5901 5901 5901 5901 5902
5934 5935 5936 5937 5936 5935 5935 5932 5932 5932 5931 5930 5928 5926 5925 5924 5922 5921 5920 5919 5917 5916 5915 5913 5912 5911 5909 5909 5908 5907 5906 5905 5904 5903 5903 5902 5902 5901 5900 5900 5900 5900 5901 5901 5901 5901 5901 5901 5901
5934 5936 5937 5939 5938 5937 5935 5934 5933 5933 5932 5931 5929 5928 5927 5925 5924 5922 5921 5920 5919 5917 5916 5915 5914 5912 5911 5910 5909 5908 5907 5906 5905 5904 5904 5903 5903 5902 5901 5901 5900 5901 5901 5901 5901 5901 5901 5901 5901
5935 5937 5939 5940 5939 5938 5936 5935 5934 5934 5934 5932 5930 5929 5928 5926 5925 5924 5923 5921 5920 5919 5918 5916 5915 5913 5912 5911 5910 5909 5908 5908 5906 5905 5905 5904 5903 5903 5902 5901 5901 5901 5901 5901 5900 5900 5900 5900 5900
5935 5937 5940 5940 5939 5938 5937 5937 5935 5935 5934 5932 5930 5929 5928 5927 5926 5925 5924 5923 5922 5920 5919 5918 5917 5915 5914 5913 5912 5911 5909 5908 5907 5906 5905 5904 5904 5903 5902 5901 5901 5901 5900 5900 5900 5900 5900 5899 5899
5933 5935 5938 5939 5938 5938 5938 5937 5936 5935 5934 5933 5931 5930 5929 5928 5927 5926 5925 5924 5923 5922 5920 5919 5918 5917 5915 5914 5913 5911 5910 5909 5908 5906 5906 5905 5904 5903 5902 5902 5901 5900 5900 5900 5900 5899 5899 5899 5898
5930 5933 5936 5937 5937 5937 5937 5937 5936 5934 5932 5933 5932 5931 5930 5929 5928 5927 5926 5925 5923 5922 5921 5920 5919 5918 5916 5914 5913 5912 5910 5909 5908 5907 5905 5905 5904 5903 5902 5901 5900 5900 5900 5900 5899 5899 5898 5898 5897
5927 5930 5933 5934 5935 5935 5936 5935 5934 5933 5931 5930 5931 5931 5930 5929 5928 5927 5927 5925 5924 5923 5922 5921 5920 5918 5917 5915 5913 5912 5911 5910 5908 5907 5906 5904 5903 5902 5901 5900 5900 5899 5899 5898 5898 5898 5897 5896 5896
5924 5927 5928 5931 5932 5933 5935 5935 5933 5932 5931 5931 5931 5930 5930 5929 5928 5928 5927 5926 5925 5924 5923 5921 5920 5919 5917 5916 5914 5913 5911 5910 5908 5907 5905 5904 5903 5902 5900 5899 5899 5898 5898 5897 5897 5896 5896 5895 5895
5920 5922 5924 5926 5929 5930 5932 5933 5932 5930 5930 5930 5930 5930 5929 5929 5928 5927 5927 5926 5925 5924 5923 5922 5920 5919 5917 5916 5915 5913 5911 5910 5908 5907 5905 5904 5902 5901 5899 5898 5897 5897 5896 5896 5895 5894 5894 5894 5893
5915 5919 5922 5923 5925 5927 5930 5931 5931 5929 5928 5928 5929 5929 5928 5928 5928 5927 5927 5926 5925 5924 5923 5922 5920 5919 5917 5916 5914 5913 5911 5910 5908 5906 5905 5903 5901 5899 5898 5897 5897 5896 5895 5894 5893 5893 5892 5892 5891
5910 5915 5919 5922 5924 5925 5926 5927 5929 5927 5926 5926 5927 5927 5927 5927 5927 5926 5926 5925 5924 5924 5922 5921 5920 5918 5917 5915 5914 5912 5911 5909 5907 5906 5904 5902 5900 5899 5897 5896 5895 5894 5893 5892 5891 5891 5891 5890 5889
5906 5910 5915 5919 5921 5923 5923 5924 5925 5925 5925 5925 5925 5925 5925 5925 5925 5925 5925 5924 5924 5923 5922 5920 5919 5918 5916 5915 5913 5912 5910 5908 5906 5905 5903 5901 5899 5898 5896 5895 5894 5893 5892 5891 5890 5889 5888 5888 5887
5902 5906 5910 5914 5917 5919 5921 5920 5921 5920 5922 5923 5923 5923 5922 5923 5924 5923 5923 5923 5922 5921 5920 5919 5918 5917 5915 5914 5912 5910 5909 5907 5905 5903 5901 5899 5897 5896 5895 5893 5892 5891 5890 5889 5888 5887 5886 5885 5884
5896 5900 5904 5909 5912 5916 5918 5919 5917 5917 5919 5920 5920 5920 5920 5921 5921 5921 5921 5921 5920 5920 5919 5917 5917 5915 5913 5912 5911 5909 5907 5905 5903 5902 5900 5898 5896 5894 5893 5891 5891 5889 5888 5887 5886 5885 5884 5883 5881
5890 5894 5899 5903 5906 5909 5913 5916 5913 5914 5915 5916 5917 5917 5917 5918 5919 5919 5919 5918 5918 5917 5917 5916 5915 5914 5912 5910 5908 5906 5905 5903 5901 5900 5898 5897 5895 5893 5891 5890 5889 5888 5886 5885 5884 5883 5881 5880 5879